KUIPER-00184

导读 | 豆包AI

KUIPER-00184是美国亚马逊“柯伊伯计划”卫星互联网星座的组成卫星,于2025年12月15日发射升空。该项目计划部署3236颗低轨卫星,旨在为全球提供高速低延迟宽带互联网接入,尤其覆盖偏远地区。KUIPER-00184运行在低地球轨道,采用Ka频段通信与相控阵天线技术,助力构建天地一体化通信网络,推动全球互联与云服务延伸,是柯伊伯星座大规模部署阶段的重要组成部分。

基本信息
目录编号:
67139
目录名称:
KUIPER-00184
国际标识:
2025-301G
轨道中心:
EARTH
卫星名称:
KUIPER-00184
卫星全名:
KUIPER-00184
卫星状态:
在轨 (已飞行161 天)
发射日期:
2025-12-15 UTC
国别 :
美国 (US)
星等 :
--
轨道信息
数据来源 国际轨道数据 AOE轨道数据
星历时间 2026-05-24T11:23:47+0800
1天前
查看轨道信息
2026-05-23T00:00:00+0800
2天前
查看轨道信息
半长轴 7018.681km 7018.703km
偏心率 0.0001838 0.0001955
轨道倾角 51.899° 51.897°
近地点辐角 117.364° 124.651°
升交点赤经 86.729° 93.215°
平近点角 242.751° 311.575°
近地点 639.253km 639.193km
远地点 641.835km 641.939km
周期 97.531分钟 97.532分钟
每日圈数 14.764526 14.764458
详细信息
使用方式:
暂无
2D轨道图
3D轨道图
轨道高度分析图
轨道倾角分析图
轨道综合分析图
查看轨道综合分析图